KLM758 MPTO-EHAM

Flight info

Callsign KLM758
Flight time N/A
Altitude 33000
Route EGETA3A EGETA DCT AGUJA UM597 BETIR M597 KEEKA/M084F330 DCT FIVZE/M084F350 DCT 27N057W 31N050W 37N040W 42N030W/M084F370 45N020W 47N015W DCT TAMEL DCT EVBAK DCT GAPLI/N0480F370 DCT GAJIT DCT ENHAQ M197 REDFA
Aircraft B77W/H-SDE1E2E3FGHIJ2J3J4J5M1RWXY/LB1D1

Departure

Time 2026-04-29 10:42
Airport Tocumen International Airport (MPTO)

Arrival

Time N/A
Airport Amsterdam Airport Schiphol (EHAM)
Time Latitude Longitude Altitude Speed Heading
2026-04-29 10:17 9.06047 -79.39082 35 ft 0 kts 317°
2026-04-29 10:31 9.06040 -79.39075 35 ft 2 kts 309°
2026-04-29 10:31 9.06030 -79.39062 33 ft 2 kts 302°
2026-04-29 10:31 9.06022 -79.39047 34 ft 2 kts 289°
2026-04-29 10:31 9.06018 -79.39031 32 ft 2 kts 272°
2026-04-29 10:32 9.06020 -79.39014 32 ft 2 kts 254°
2026-04-29 10:32 9.06026 -79.38999 31 ft 2 kts 239°
2026-04-29 10:32 9.06032 -79.38989 34 ft 2 kts 231°
2026-04-29 10:34 9.06040 -79.38980 32 ft 1 kts 223°
2026-04-29 10:34 9.06044 -79.38976 32 ft 0 kts 219°
2026-04-29 10:35 9.06043 -79.38977 32 ft 0 kts 219°
2026-04-29 10:36 9.06024 -79.38993 32 ft 8 kts 219°
2026-04-29 10:36 9.05956 -79.39036 35 ft 13 kts 208°
2026-04-29 10:36 9.05880 -79.39079 35 ft 13 kts 209°
2026-04-29 10:36 9.05804 -79.39123 35 ft 13 kts 210°
2026-04-29 10:37 9.05723 -79.39131 35 ft 13 kts 146°
2026-04-29 10:37 9.05674 -79.39059 35 ft 13 kts 122°
2026-04-29 10:37 9.05623 -79.38989 35 ft 13 kts 150°
2026-04-29 10:37 9.05539 -79.39004 35 ft 13 kts 206°
2026-04-29 10:38 9.05463 -79.39047 35 ft 13 kts 209°
2026-04-29 10:38 9.05386 -79.39090 35 ft 13 kts 208°
2026-04-29 10:38 9.05304 -79.39135 35 ft 14 kts 209°
2026-04-29 10:38 9.05211 -79.39188 35 ft 16 kts 209°
2026-04-29 10:39 9.05112 -79.39245 35 ft 16 kts 209°
2026-04-29 10:39 9.05012 -79.39302 35 ft 16 kts 209°
2026-04-29 10:39 9.04912 -79.39359 35 ft 16 kts 210°
2026-04-29 10:39 9.04833 -79.39354 35 ft 13 kts 136°
2026-04-29 10:40 9.04790 -79.39288 36 ft 3 kts 115°
2026-04-29 10:40 9.04786 -79.39267 36 ft 3 kts 87°
2026-04-29 10:40 9.04797 -79.39247 36 ft 3 kts 50°
2026-04-29 10:40 9.04815 -79.39232 36 ft 3 kts 35°
2026-04-29 10:41 9.04836 -79.39221 36 ft 7 kts 28°
2026-04-29 10:41 9.05058 -79.39097 36 ft 76 kts 29°
2026-04-29 10:41 9.05754 -79.38700 36 ft 152 kts 29°
2026-04-29 10:41 9.06865 -79.38085 99 ft 203 kts 29°
2026-04-29 10:42 9.08071 -79.37354 709 ft 206 kts 33°
2026-04-29 10:42 9.09253 -79.36507 1417 ft 203 kts 35°
2026-04-29 10:42 9.10347 -79.35684 2369 ft 190 kts 35°
2026-04-29 10:42 9.11400 -79.34874 2866 ft 193 kts 35°
2026-04-29 10:43 9.12512 -79.34025 3163 ft 210 kts 36°
2026-04-29 10:43 9.13714 -79.33082 3427 ft 229 kts 36°
2026-04-29 10:43 9.15037 -79.32054 3729 ft 246 kts 36°
2026-04-29 10:43 9.16433 -79.30988 4284 ft 255 kts 36°
2026-04-29 10:44 9.17869 -79.29896 4966 ft 259 kts 36°
2026-04-29 10:44 9.19319 -79.28794 5634 ft 263 kts 36°
2026-04-29 10:44 9.20800 -79.27666 6234 ft 268 kts 37°
2026-04-29 10:44 9.22281 -79.26538 6848 ft 271 kts 37°
2026-04-29 10:45 9.23796 -79.25384 7476 ft 274 kts 37°
2026-04-29 10:45 9.25336 -79.24211 8105 ft 278 kts 37°
2026-04-29 10:45 9.26892 -79.23025 8718 ft 281 kts 37°
2026-04-29 10:45 9.28464 -79.21826 9356 ft 285 kts 37°
2026-04-29 10:46 9.30053 -79.20614 9943 ft 288 kts 37°
2026-04-29 10:46 9.31677 -79.19375 10409 ft 298 kts 37°
2026-04-29 10:46 9.33398 -79.18062 10553 ft 320 kts 37°
2026-04-29 10:46 9.35235 -79.16660 10717 ft 341 kts 37°
2026-04-29 10:47 9.37187 -79.15171 10871 ft 362 kts 37°
2026-04-29 10:47 9.39235 -79.13607 11247 ft 374 kts 37°
2026-04-29 10:47 9.41333 -79.12005 11761 ft 380 kts 37°
2026-04-29 10:47 9.43466 -79.10377 11860 ft 388 kts 37°
2026-04-29 10:48 9.45617 -79.08735 11887 ft 387 kts 37°
2026-04-29 10:48 9.47750 -79.07050 12358 ft 390 kts 41°
2026-04-29 10:48 9.49708 -79.05134 13086 ft 392 kts 46°
2026-04-29 10:48 9.51540 -79.03119 13782 ft 395 kts 48°
2026-04-29 10:49 9.53380 -79.01024 14319 ft 400 kts 49°
2026-04-29 10:49 9.55237 -78.98907 14892 ft 404 kts 48°
2026-04-29 10:49 9.57113 -78.96790 15473 ft 408 kts 48°
2026-04-29 10:49 9.59045 -78.94636 16058 ft 412 kts 47°
2026-04-29 10:50 9.60991 -78.92486 16622 ft 416 kts 47°
2026-04-29 10:50 9.62960 -78.90324 17180 ft 420 kts 47°
2026-04-29 10:50 9.64956 -78.88141 17732 ft 423 kts 47°
2026-04-29 10:50 9.66971 -78.85942 18217 ft 429 kts 47°
2026-04-29 10:51 9.69017 -78.83709 18611 ft 434 kts 47°
2026-04-29 10:51 9.71080 -78.81459 19060 ft 438 kts 47°
2026-04-29 10:51 9.73168 -78.79181 19484 ft 443 kts 47°
2026-04-29 10:51 9.75271 -78.76885 19915 ft 447 kts 47°
2026-04-29 10:52 9.77401 -78.74560 20336 ft 451 kts 47°
2026-04-29 10:52 9.79544 -78.72219 20753 ft 456 kts 47°
2026-04-29 10:52 9.81708 -78.69854 21211 ft 458 kts 47°
2026-04-29 10:52 9.83888 -78.67473 21651 ft 462 kts 47°
2026-04-29 10:53 9.86080 -78.65076 22099 ft 465 kts 47°
2026-04-29 10:53 9.88288 -78.62663 22507 ft 469 kts 47°
2026-04-29 10:53 9.90514 -78.60228 22918 ft 472 kts 47°
2026-04-29 10:53 9.92755 -78.57778 23312 ft 476 kts 47°
2026-04-29 10:54 9.95012 -78.55309 23670 ft 479 kts 47°
2026-04-29 10:54 9.97284 -78.52822 24000 ft 482 kts 47°
2026-04-29 10:54 9.99568 -78.50323 24342 ft 485 kts 47°
2026-04-29 10:54 10.01835 -78.47841 24675 ft 488 kts 47°
2026-04-29 10:55 10.04149 -78.45308 24942 ft 492 kts 47°
2026-04-29 10:55 10.06480 -78.42755 25247 ft 495 kts 47°
2026-04-29 10:55 10.08823 -78.40188 25575 ft 497 kts 47°
2026-04-29 10:55 10.11182 -78.37604 25901 ft 499 kts 47°
2026-04-29 10:56 10.13551 -78.35008 26215 ft 502 kts 47°
2026-04-29 10:56 10.15930 -78.32400 26513 ft 505 kts 47°
2026-04-29 10:56 10.18324 -78.29775 26801 ft 508 kts 47°
2026-04-29 10:56 10.20731 -78.27135 27097 ft 510 kts 47°
2026-04-29 10:57 10.23148 -78.24483 27375 ft 513 kts 47°
2026-04-29 10:57 10.24755 -78.22721 27561 ft 514 kts 47°
2026-04-29 10:57 10.27193 -78.20045 27827 ft 517 kts 47°
2026-04-29 10:57 10.29642 -78.17357 28097 ft 519 kts 48°
2026-04-29 10:58 10.32100 -78.14658 28363 ft 522 kts 48°
2026-04-29 10:58 10.34567 -78.11948 28605 ft 524 kts 48°
2026-04-29 10:58 10.37051 -78.09220 28808 ft 527 kts 47°
2026-04-29 10:58 10.39550 -78.06474 28965 ft 531 kts 47°
2026-04-29 10:59 10.42066 -78.03709 29156 ft 533 kts 48°
2026-04-29 10:59 10.44584 -78.00940 29371 ft 535 kts 48°
2026-04-29 10:59 10.47111 -77.98162 29636 ft 535 kts 48°
2026-04-29 10:59 10.49635 -77.95387 29962 ft 535 kts 47°
2026-04-29 11:00 10.52157 -77.92611 30238 ft 534 kts 47°
2026-04-29 11:00 10.54677 -77.89839 30488 ft 534 kts 47°
2026-04-29 11:00 10.57166 -77.87099 30718 ft 535 kts 47°
2026-04-29 11:00 10.59693 -77.84317 30951 ft 536 kts 47°
2026-04-29 11:01 10.62216 -77.81538 31205 ft 536 kts 47°
2026-04-29 11:01 10.64746 -77.78751 31469 ft 536 kts 47°
2026-04-29 11:01 10.67275 -77.75964 31738 ft 536 kts 47°
2026-04-29 11:01 10.69807 -77.73173 31965 ft 536 kts 47°
2026-04-29 11:02 10.72338 -77.70382 32210 ft 537 kts 47°
2026-04-29 11:02 10.74870 -77.67590 32456 ft 537 kts 47°
2026-04-29 11:02 10.77404 -77.64795 32699 ft 537 kts 47°
2026-04-29 11:02 10.79941 -77.61996 32804 ft 541 kts 47°
2026-04-29 11:03 10.82495 -77.59177 32856 ft 541 kts 47°
2026-04-29 11:03 10.87584 -77.53557 32839 ft 536 kts 47°
2026-04-29 11:04 10.92590 -77.48026 32863 ft 534 kts 47°
2026-04-29 11:04 10.97619 -77.42466 32856 ft 534 kts 47°
2026-04-29 11:05 11.02709 -77.36955 32862 ft 534 kts 46°
2026-04-29 11:05 11.07885 -77.31499 32857 ft 536 kts 46°
2026-04-29 11:06 11.13075 -77.26016 32868 ft 539 kts 46°
2026-04-29 11:06 11.18266 -77.20497 32870 ft 540 kts 46°
2026-04-29 11:07 11.23461 -77.14964 32856 ft 540 kts 46°
2026-04-29 11:07 11.28646 -77.09440 32855 ft 539 kts 46°
2026-04-29 11:08 11.33814 -77.03932 32858 ft 537 kts 46°
2026-04-29 11:08 11.38979 -76.98446 32862 ft 536 kts 45°
2026-04-29 11:09 11.44281 -76.93088 32867 ft 538 kts 43°
2026-04-29 11:09 11.49661 -76.87746 32870 ft 541 kts 43°
2026-04-29 11:10 11.55006 -76.82402 32866 ft 542 kts 43°
2026-04-29 11:10 11.60376 -76.76995 32863 ft 543 kts 44°
2026-04-29 11:11 11.65741 -76.71581 32863 ft 542 kts 44°
2026-04-29 11:11 11.71093 -76.66181 32864 ft 540 kts 44°
2026-04-29 11:12 11.76441 -76.60784 32853 ft 540 kts 44°
2026-04-29 11:12 11.81794 -76.55381 32870 ft 541 kts 44°
2026-04-29 11:13 11.87152 -76.49968 32872 ft 543 kts 44°
2026-04-29 11:13 11.92518 -76.44544 32858 ft 543 kts 43°
2026-04-29 11:14 11.97884 -76.39117 32874 ft 543 kts 43°
2026-04-29 11:14 12.03243 -76.33692 32870 ft 542 kts 43°
2026-04-29 11:15 12.08593 -76.28275 32852 ft 542 kts 43°
2026-04-29 11:15 12.13945 -76.22852 32876 ft 542 kts 43°
2026-04-29 11:16 12.19305 -76.17418 32872 ft 543 kts 43°
2026-04-29 11:16 12.24673 -76.11970 32876 ft 543 kts 43°
2026-04-29 11:17 12.30040 -76.06524 32882 ft 543 kts 43°
2026-04-29 11:17 12.35364 -76.01124 32882 ft 542 kts 43°
2026-04-29 11:18 12.40718 -75.95688 32882 ft 542 kts 43°
2026-04-29 11:18 12.46064 -75.90257 32886 ft 542 kts 43°
2026-04-29 11:19 12.51425 -75.84806 32880 ft 543 kts 43°
2026-04-29 11:19 12.56793 -75.79344 32886 ft 544 kts 43°
2026-04-29 11:20 12.62172 -75.73868 32886 ft 544 kts 43°
2026-04-29 11:20 12.67504 -75.68436 32889 ft 544 kts 43°
2026-04-29 11:21 12.72871 -75.62965 32872 ft 543 kts 43°
2026-04-29 11:21 12.78231 -75.57498 32889 ft 544 kts 43°
2026-04-29 11:22 12.83589 -75.52029 32897 ft 544 kts 43°
2026-04-29 11:22 12.88954 -75.46548 32896 ft 545 kts 43°
2026-04-29 11:23 12.94329 -75.41056 32904 ft 545 kts 43°
2026-04-29 11:23 12.99700 -75.35563 32885 ft 545 kts 43°
2026-04-29 11:24 13.05065 -75.30070 32899 ft 544 kts 43°
2026-04-29 11:24 13.10427 -75.24576 32887 ft 544 kts 43°
2026-04-29 11:25 13.15782 -75.19085 32909 ft 545 kts 43°
2026-04-29 11:25 13.21109 -75.13622 32905 ft 545 kts 43°
2026-04-29 11:26 13.29164 -75.05363 32904 ft 545 kts 43°
2026-04-29 11:26 13.34530 -74.99854 32897 ft 545 kts 43°
2026-04-29 11:27 13.39892 -74.94344 32913 ft 545 kts 43°
2026-04-29 11:27 13.45257 -74.88827 32894 ft 546 kts 43°
2026-04-29 11:28 13.50628 -74.83301 32902 ft 546 kts 43°
2026-04-29 11:28 13.56001 -74.77769 32918 ft 547 kts 43°
2026-04-29 11:29 13.61344 -74.72264 32904 ft 547 kts 43°
2026-04-29 11:29 13.66724 -74.66716 32899 ft 548 kts 43°
2026-04-29 11:30 13.72107 -74.61163 32910 ft 548 kts 43°
2026-04-29 11:30 13.77491 -74.55604 32903 ft 548 kts 43°
2026-04-29 11:31 13.82876 -74.50041 32922 ft 549 kts 43°
2026-04-29 11:31 13.88266 -74.44469 32911 ft 549 kts 43°
2026-04-29 11:32 13.93656 -74.38891 32914 ft 549 kts 43°
2026-04-29 11:32 13.99051 -74.33305 32930 ft 549 kts 43°
2026-04-29 11:33 14.04437 -74.27724 32915 ft 549 kts 43°
2026-04-29 11:33 14.09779 -74.22184 32913 ft 549 kts 43°
2026-04-29 11:34 14.15153 -74.16608 32916 ft 548 kts 43°
2026-04-29 11:34 14.20524 -74.11043 32916 ft 547 kts 43°
2026-04-29 11:35 14.25901 -74.05487 32920 ft 547 kts 43°
2026-04-29 11:35 14.31272 -73.99929 32918 ft 547 kts 43°
2026-04-29 11:36 14.36651 -73.94371 32926 ft 547 kts 43°
2026-04-29 11:36 14.42025 -73.88824 32919 ft 547 kts 42°
2026-04-29 11:37 14.47401 -73.83268 32926 ft 547 kts 42°
2026-04-29 11:37 14.52785 -73.77696 32930 ft 548 kts 42°
2026-04-29 11:38 14.58169 -73.72120 32927 ft 548 kts 42°
2026-04-29 11:38 14.63552 -73.66542 32929 ft 548 kts 42°
2026-04-29 11:39 14.68932 -73.60962 32935 ft 548 kts 42°
2026-04-29 11:39 14.74313 -73.55376 32931 ft 548 kts 42°
2026-04-29 11:40 14.79686 -73.49794 32936 ft 548 kts 42°
2026-04-29 11:40 14.85022 -73.44248 32937 ft 547 kts 42°
2026-04-29 11:41 14.90460 -73.38733 32935 ft 546 kts 40°
2026-04-29 11:41 14.96053 -73.33412 32939 ft 546 kts 39°
2026-04-29 11:42 15.01630 -73.28073 32954 ft 546 kts 40°
2026-04-29 11:42 15.07174 -73.22695 32943 ft 546 kts 40°
2026-04-29 11:43 15.12623 -73.17279 32942 ft 547 kts 41°
2026-04-29 11:43 15.18010 -73.11722 32941 ft 546 kts 42°
2026-04-29 11:44 15.23401 -73.06173 32943 ft 546 kts 41°
2026-04-29 11:44 15.27933 -73.01535 32945 ft 546 kts 41°
2026-04-29 11:45 15.33307 -72.96038 32957 ft 546 kts 41°
2026-04-29 11:45 15.38715 -72.90494 32948 ft 546 kts 41°
2026-04-29 11:46 15.44114 -72.84946 32947 ft 546 kts 41°
2026-04-29 11:46 15.49508 -72.79396 32949 ft 546 kts 41°
2026-04-29 11:47 15.54904 -72.73840 32953 ft 546 kts 41°
2026-04-29 11:47 15.60297 -72.68285 32954 ft 546 kts 41°
2026-04-29 11:48 15.65689 -72.62725 32963 ft 546 kts 41°
2026-04-29 11:48 15.71078 -72.57165 32947 ft 545 kts 41°
2026-04-29 11:49 15.76415 -72.51653 32951 ft 544 kts 41°
2026-04-29 11:49 15.81784 -72.46105 32955 ft 543 kts 41°
2026-04-29 11:50 15.87139 -72.40565 32955 ft 543 kts 41°
2026-04-29 11:50 15.92490 -72.35026 32960 ft 543 kts 41°
2026-04-29 11:51 15.97836 -72.29488 32970 ft 543 kts 42°
2026-04-29 11:51 16.03186 -72.23947 32959 ft 542 kts 42°
2026-04-29 11:52 16.08519 -72.18425 32963 ft 541 kts 42°
2026-04-29 11:52 16.13849 -72.12901 32966 ft 540 kts 42°
2026-04-29 11:53 16.19168 -72.07381 32964 ft 540 kts 42°
2026-04-29 11:53 16.24446 -72.01899 32966 ft 540 kts 42°
2026-04-29 11:54 16.29758 -71.96379 32968 ft 540 kts 42°
2026-04-29 11:54 16.35079 -71.90844 32970 ft 541 kts 42°
2026-04-29 11:55 16.40399 -71.85304 32974 ft 541 kts 41°
2026-04-29 11:55 16.45719 -71.79760 32969 ft 541 kts 41°
2026-04-29 11:56 16.51042 -71.74208 32969 ft 541 kts 42°
2026-04-29 11:56 16.56366 -71.68651 32971 ft 541 kts 42°
2026-04-29 11:57 16.61629 -71.63093 32983 ft 542 kts 42°
2026-04-29 11:57 16.66899 -71.57461 32975 ft 542 kts 42°
2026-04-29 11:58 16.72170 -71.51828 32973 ft 542 kts 42°
2026-04-29 11:58 16.77446 -71.46199 32974 ft 542 kts 42°
2026-04-29 11:59 16.82719 -71.40569 32980 ft 542 kts 42°
2026-04-29 11:59 16.87991 -71.34934 32987 ft 542 kts 42°
2026-04-29 12:00 16.93254 -71.29292 32984 ft 543 kts 43°
2026-04-29 12:00 16.98482 -71.23582 32973 ft 544 kts 43°
2026-04-29 12:01 17.03699 -71.17857 32981 ft 544 kts 43°
2026-04-29 12:01 17.08887 -71.12174 32981 ft 544 kts 43°
2026-04-29 12:02 17.14114 -71.06452 32987 ft 544 kts 43°
2026-04-29 12:02 17.19340 -71.00724 32988 ft 544 kts 43°
2026-04-29 12:03 17.24569 -70.94990 32990 ft 544 kts 43°
2026-04-29 12:03 17.29852 -70.89322 32983 ft 544 kts 42°
2026-04-29 12:04 17.35165 -70.83695 32992 ft 543 kts 41°
2026-04-29 12:04 17.40464 -70.78063 32986 ft 542 kts 42°
2026-04-29 12:05 17.45744 -70.72426 32999 ft 542 kts 42°
2026-04-29 12:05 17.50991 -70.66814 32986 ft 542 kts 42°
2026-04-29 12:06 17.56276 -70.61158 32988 ft 543 kts 42°
2026-04-29 12:06 17.61566 -70.55493 32993 ft 544 kts 42°
2026-04-29 12:07 17.66865 -70.49813 32997 ft 543 kts 42°
2026-04-29 12:07 17.72150 -70.44142 33001 ft 543 kts 42°
2026-04-29 12:08 17.77396 -70.38509 33009 ft 543 kts 42°
2026-04-29 12:08 17.82684 -70.32824 32996 ft 544 kts 42°
2026-04-29 12:09 17.87967 -70.27132 32993 ft 545 kts 42°
2026-04-29 12:09 17.93238 -70.21404 33005 ft 545 kts 42°
2026-04-29 12:10 17.98503 -70.15670 33015 ft 545 kts 42°
2026-04-29 12:10 18.03773 -70.09931 32998 ft 545 kts 42°
2026-04-29 12:11 18.09039 -70.04195 33000 ft 545 kts 42°
2026-04-29 12:11 18.14304 -69.98453 33007 ft 545 kts 42°
2026-04-29 12:12 18.19538 -69.92751 33011 ft 545 kts 42°
2026-04-29 12:12 18.24811 -69.87008 33011 ft 545 kts 42°
2026-04-29 12:13 18.30079 -69.81262 33019 ft 545 kts 42°
2026-04-29 12:13 18.35346 -69.75509 33030 ft 545 kts 42°
2026-04-29 12:14 18.40605 -69.69760 33019 ft 545 kts 42°
2026-04-29 12:14 18.45831 -69.63973 33022 ft 546 kts 44°
2026-04-29 12:15 18.50857 -69.58031 33024 ft 546 kts 45°
2026-04-29 12:15 18.55906 -69.52051 33021 ft 546 kts 44°
2026-04-29 12:16 18.60994 -69.46105 33022 ft 546 kts 44°
2026-04-29 12:16 18.66102 -69.40178 33028 ft 546 kts 44°
2026-04-29 12:17 18.71208 -69.34251 33021 ft 546 kts 44°
2026-04-29 12:17 18.76315 -69.28307 33023 ft 546 kts 44°
2026-04-29 12:18 18.81418 -69.22356 33019 ft 546 kts 44°
2026-04-29 12:18 18.86518 -69.16406 33026 ft 546 kts 44°
2026-04-29 12:19 18.91610 -69.10459 33037 ft 546 kts 44°
2026-04-29 12:19 18.96700 -69.04509 33032 ft 545 kts 44°
2026-04-29 12:20 19.01756 -68.98592 33021 ft 546 kts 44°
2026-04-29 12:20 19.06848 -68.92627 33023 ft 547 kts 44°
2026-04-29 12:21 19.11946 -68.86648 33022 ft 547 kts 44°
2026-04-29 12:21 19.17047 -68.80670 33022 ft 547 kts 44°
2026-04-29 12:22 19.22158 -68.74707 33018 ft 547 kts 44°
2026-04-29 12:22 19.27277 -68.68727 33018 ft 548 kts 44°
2026-04-29 12:23 19.32392 -68.62739 33021 ft 548 kts 44°
2026-04-29 12:23 19.37500 -68.56744 33014 ft 548 kts 44°
2026-04-29 12:24 19.42565 -68.50767 33021 ft 548 kts 44°
2026-04-29 12:24 19.47658 -68.44744 33034 ft 548 kts 44°
2026-04-29 12:25 19.52751 -68.38719 33024 ft 549 kts 44°
2026-04-29 12:26 19.60406 -68.29655 33019 ft 550 kts 44°
2026-04-29 12:26 19.65509 -68.23607 33020 ft 550 kts 44°
2026-04-29 12:27 19.70606 -68.17557 33021 ft 550 kts 44°
2026-04-29 12:27 19.75704 -68.11500 33032 ft 550 kts 44°
2026-04-29 12:28 19.80805 -68.05434 33019 ft 550 kts 44°
2026-04-29 12:28 19.85869 -67.99406 33021 ft 550 kts 44°
2026-04-29 12:29 19.90961 -67.93337 33021 ft 550 kts 44°
2026-04-29 12:29 19.96052 -67.87264 33022 ft 550 kts 44°
2026-04-29 12:30 20.01148 -67.81177 33023 ft 550 kts 44°
2026-04-29 12:30 20.06232 -67.75100 33021 ft 550 kts 44°
2026-04-29 12:31 20.11324 -67.69006 33021 ft 550 kts 44°
2026-04-29 12:31 20.16409 -67.62914 33022 ft 550 kts 44°
2026-04-29 12:32 20.21490 -67.56819 33020 ft 550 kts 44°
2026-04-29 12:32 20.26540 -67.50756 33022 ft 550 kts 44°
2026-04-29 12:33 20.31621 -67.44648 33027 ft 550 kts 44°
2026-04-29 12:33 20.36698 -67.38539 33021 ft 551 kts 44°
2026-04-29 12:34 20.41766 -67.32430 33022 ft 551 kts 44°
2026-04-29 12:34 20.46827 -67.26293 33022 ft 551 kts 44°
2026-04-29 12:35 20.51027 -67.21192 33020 ft 551 kts 44°
2026-04-29 12:35 20.56084 -67.15055 33042 ft 551 kts 44°
2026-04-29 12:36 20.61160 -67.08919 33019 ft 551 kts 44°
2026-04-29 12:36 20.66239 -67.02779 33023 ft 551 kts 44°
2026-04-29 12:37 20.71303 -66.96645 33022 ft 551 kts 44°
2026-04-29 12:37 20.76334 -66.90540 33026 ft 551 kts 44°
2026-04-29 12:38 20.81394 -66.84393 33036 ft 551 kts 44°
2026-04-29 12:38 20.86458 -66.78235 33020 ft 551 kts 44°
2026-04-29 12:39 20.91522 -66.72070 33023 ft 551 kts 44°
2026-04-29 12:39 20.96573 -66.65914 33020 ft 551 kts 44°
2026-04-29 12:40 21.01621 -66.59755 33020 ft 550 kts 44°
2026-04-29 12:40 21.06666 -66.53592 33025 ft 550 kts 44°
2026-04-29 12:41 21.11712 -66.47421 33032 ft 550 kts 44°
2026-04-29 12:41 21.16749 -66.41254 33022 ft 550 kts 44°
2026-04-29 12:42 21.21784 -66.35084 33020 ft 549 kts 44°
2026-04-29 12:42 21.26776 -66.28958 33022 ft 549 kts 44°
2026-04-29 12:43 21.31795 -66.22792 33015 ft 549 kts 44°
2026-04-29 12:43 21.36814 -66.16619 33016 ft 549 kts 44°
2026-04-29 12:44 21.41824 -66.10450 33031 ft 548 kts 44°
2026-04-29 12:44 21.46791 -66.04246 33018 ft 549 kts 47°
2026-04-29 12:45 21.51414 -65.97697 33011 ft 550 kts 49°
2026-04-29 12:45 21.55967 -65.91087 33026 ft 550 kts 49°
2026-04-29 12:46 21.60536 -65.84489 33021 ft 550 kts 49°
2026-04-29 12:46 21.65091 -65.77946 33025 ft 549 kts 49°
2026-04-29 12:47 21.69671 -65.71373 33021 ft 549 kts 49°
2026-04-29 12:47 21.74241 -65.64800 33020 ft 549 kts 49°
2026-04-29 12:48 21.78810 -65.58218 33016 ft 549 kts 49°
2026-04-29 12:48 21.83376 -65.51632 33038 ft 549 kts 49°
2026-04-29 12:49 21.87928 -65.45057 33022 ft 548 kts 49°
2026-04-29 12:49 21.92477 -65.38479 33026 ft 546 kts 49°
2026-04-29 12:50 21.97004 -65.31926 33022 ft 545 kts 49°
2026-04-29 12:50 22.01522 -65.25377 33018 ft 544 kts 49°
2026-04-29 12:51 22.06042 -65.18818 33026 ft 545 kts 49°
2026-04-29 12:51 22.10514 -65.12222 33040 ft 547 kts 52°
2026-04-29 12:52 22.14661 -65.05305 33305 ft 555 kts 54°
2026-04-29 12:52 22.16718 -65.01792 33606 ft 554 kts 54°
2026-04-29 12:52 22.18772 -64.98274 33929 ft 553 kts 54°
2026-04-29 12:52 22.20828 -64.94764 34158 ft 553 kts 53°
2026-04-29 12:53 22.22891 -64.91256 34349 ft 553 kts 53°
2026-04-29 12:53 22.24965 -64.87740 34587 ft 553 kts 53°
2026-04-29 12:53 22.27028 -64.84249 34843 ft 551 kts 53°
2026-04-29 12:53 22.29096 -64.80751 34974 ft 552 kts 53°
2026-04-29 12:54 22.31165 -64.77251 35022 ft 553 kts 53°
2026-04-29 12:54 22.35251 -64.70326 35014 ft 547 kts 53°
2026-04-29 12:55 22.39322 -64.63413 35020 ft 545 kts 53°
2026-04-29 12:55 22.43397 -64.56486 35020 ft 545 kts 53°
2026-04-29 12:56 22.47465 -64.49563 35038 ft 545 kts 53°
2026-04-29 12:56 22.51531 -64.42633 35023 ft 546 kts 53°
2026-04-29 12:57 22.55605 -64.35679 35003 ft 548 kts 53°
2026-04-29 12:57 22.59683 -64.28708 35019 ft 549 kts 53°
2026-04-29 12:58 22.63767 -64.21719 35027 ft 550 kts 53°
2026-04-29 12:58 22.67857 -64.14711 35025 ft 551 kts 53°
2026-04-29 12:59 22.71947 -64.07690 35008 ft 551 kts 53°
2026-04-29 12:59 22.76034 -64.00667 35046 ft 551 kts 54°
2026-04-29 13:00 22.80111 -63.93651 35016 ft 549 kts 54°
2026-04-29 13:00 22.84145 -63.86698 35015 ft 547 kts 54°
2026-04-29 13:01 22.88189 -63.79721 35014 ft 545 kts 54°
2026-04-29 13:01 22.92217 -63.72763 35011 ft 544 kts 54°
2026-04-29 13:02 22.96241 -63.65803 35018 ft 544 kts 54°
2026-04-29 13:02 23.00262 -63.58838 35039 ft 545 kts 54°
2026-04-29 13:03 23.04286 -63.51860 35030 ft 545 kts 54°
2026-04-29 13:03 23.08308 -63.44872 35025 ft 546 kts 54°
2026-04-29 13:04 23.12330 -63.37875 35022 ft 546 kts 54°
2026-04-29 13:04 23.16324 -63.30918 35021 ft 545 kts 54°
2026-04-29 13:05 23.20336 -63.23921 35038 ft 545 kts 54°
2026-04-29 13:05 23.24345 -63.16918 35028 ft 544 kts 54°
2026-04-29 13:06 23.28340 -63.09931 35012 ft 543 kts 54°
2026-04-29 13:06 23.32324 -63.02953 35018 ft 542 kts 54°
2026-04-29 13:07 23.36303 -62.95976 35021 ft 542 kts 54°
2026-04-29 13:07 23.40275 -62.89001 35024 ft 542 kts 54°
2026-04-29 13:08 23.44221 -62.82063 35024 ft 542 kts 54°
2026-04-29 13:08 23.48187 -62.75078 35021 ft 542 kts 54°
2026-04-29 13:09 23.52154 -62.68083 35024 ft 542 kts 54°
2026-04-29 13:09 23.56115 -62.61087 35021 ft 542 kts 54°
2026-04-29 13:10 23.60073 -62.54087 35022 ft 542 kts 54°
2026-04-29 13:10 23.64028 -62.47084 35044 ft 542 kts 54°
2026-04-29 13:11 23.67980 -62.40076 35023 ft 543 kts 54°
2026-04-29 13:11 23.71934 -62.33054 35021 ft 543 kts 54°
2026-04-29 13:12 23.75883 -62.26032 35019 ft 543 kts 54°
2026-04-29 13:12 23.79827 -62.19009 35015 ft 543 kts 54°
2026-04-29 13:13 23.83766 -62.11983 35020 ft 542 kts 54°
2026-04-29 13:13 23.87704 -62.04951 35027 ft 543 kts 54°
2026-04-29 13:14 23.91615 -61.97956 35016 ft 543 kts 54°
2026-04-29 13:14 23.95544 -61.90919 35014 ft 542 kts 54°
2026-04-29 13:15 23.99472 -61.83874 35013 ft 542 kts 54°
2026-04-29 13:15 24.03395 -61.76828 35014 ft 542 kts 54°
2026-04-29 13:16 24.07314 -61.69780 35028 ft 542 kts 54°
2026-04-29 13:16 24.11227 -61.62730 35011 ft 541 kts 54°
2026-04-29 13:17 24.15128 -61.55692 35014 ft 540 kts 55°
2026-04-29 13:17 24.18997 -61.48703 35016 ft 539 kts 55°
2026-04-29 13:18 24.22876 -61.41686 35016 ft 538 kts 55°
2026-04-29 13:18 24.26749 -61.34673 35038 ft 538 kts 55°
2026-04-29 13:19 24.30617 -61.27654 35013 ft 536 kts 56°
2026-04-29 13:19 24.34468 -61.20656 35010 ft 535 kts 56°
2026-04-29 13:20 24.38302 -61.13681 35011 ft 533 kts 56°
2026-04-29 13:20 24.42103 -61.06755 35013 ft 533 kts 56°
2026-04-29 13:21 24.45924 -60.99784 35024 ft 533 kts 56°
2026-04-29 13:21 24.49746 -60.92802 35014 ft 533 kts 56°
2026-04-29 13:22 24.53550 -60.85839 35014 ft 531 kts 56°
2026-04-29 13:22 24.57346 -60.78881 35013 ft 530 kts 56°
2026-04-29 13:23 24.61132 -60.71933 34993 ft 529 kts 56°
2026-04-29 13:23 24.64269 -60.66169 35018 ft 529 kts 56°
2026-04-29 13:24 24.68047 -60.59218 35012 ft 530 kts 56°
2026-04-29 13:24 24.71829 -60.52249 35012 ft 531 kts 56°
2026-04-29 13:25 24.75614 -60.45263 35005 ft 532 kts 56°
2026-04-29 13:25 24.81297 -60.34753 35014 ft 534 kts 56°
2026-04-29 13:26 24.85098 -60.27713 35024 ft 535 kts 56°
2026-04-29 13:26 24.88889 -60.20680 35006 ft 533 kts 56°
2026-04-29 13:27 24.92658 -60.13674 34993 ft 530 kts 56°
2026-04-29 13:27 24.96406 -60.06700 34996 ft 527 kts 56°
2026-04-29 13:28 25.00168 -59.99772 35002 ft 525 kts 54°
2026-04-29 13:28 25.04443 -59.93361 35018 ft 522 kts 49°
2026-04-29 13:29 25.08875 -59.87024 35008 ft 522 kts 49°
2026-04-29 13:29 25.13283 -59.80670 35007 ft 522 kts 49°
2026-04-29 13:30 25.17667 -59.74286 34997 ft 522 kts 50°
2026-04-29 13:30 25.22042 -59.67886 35007 ft 522 kts 50°
2026-04-29 13:31 25.26415 -59.61479 35018 ft 522 kts 50°
2026-04-29 13:31 25.30783 -59.55074 35003 ft 521 kts 50°
2026-04-29 13:32 25.35145 -59.48673 35003 ft 521 kts 50°
2026-04-29 13:32 25.39498 -59.42275 35005 ft 520 kts 50°
2026-04-29 13:33 25.43813 -59.35926 35001 ft 520 kts 50°
2026-04-29 13:33 25.48154 -59.29530 35006 ft 519 kts 50°
2026-04-29 13:34 25.52488 -59.23135 35001 ft 519 kts 50°
2026-04-29 13:34 25.56811 -59.16747 35000 ft 518 kts 50°
2026-04-29 13:35 25.61126 -59.10362 34992 ft 517 kts 50°
2026-04-29 13:35 25.65435 -59.03978 35013 ft 517 kts 50°
2026-04-29 13:36 25.69740 -58.97590 35006 ft 517 kts 50°
2026-04-29 13:36 25.74039 -58.91204 35001 ft 516 kts 50°
2026-04-29 13:37 25.78334 -58.84813 35003 ft 516 kts 50°
2026-04-29 13:37 25.82618 -58.78431 35006 ft 516 kts 50°
2026-04-29 13:38 25.86897 -58.72048 35016 ft 515 kts 50°
2026-04-29 13:38 25.91176 -58.65656 35001 ft 515 kts 50°
2026-04-29 13:39 25.95416 -58.59313 34994 ft 514 kts 50°
2026-04-29 13:39 25.99673 -58.52936 34996 ft 513 kts 50°
2026-04-29 13:40 26.03923 -58.46560 34996 ft 513 kts 50°
2026-04-29 13:40 26.08171 -58.40180 35003 ft 513 kts 50°
2026-04-29 13:41 26.12412 -58.33800 34994 ft 513 kts 50°
2026-04-29 13:41 26.16655 -58.27409 34993 ft 513 kts 50°
2026-04-29 13:42 26.20894 -58.21015 34981 ft 513 kts 50°
2026-04-29 13:42 26.25133 -58.14612 34995 ft 514 kts 50°
2026-04-29 13:43 26.29375 -58.08195 34992 ft 515 kts 50°
2026-04-29 13:43 26.33618 -58.01769 34991 ft 515 kts 50°
2026-04-29 13:44 26.37867 -57.95324 34990 ft 516 kts 50°
2026-04-29 13:44 26.42113 -57.88873 34986 ft 516 kts 50°
2026-04-29 13:45 26.46360 -57.82412 34992 ft 517 kts 50°
2026-04-29 13:45 26.50608 -57.75942 34987 ft 517 kts 50°
2026-04-29 13:46 26.54856 -57.69461 34986 ft 517 kts 50°
2026-04-29 13:46 26.59099 -57.62978 34981 ft 517 kts 50°
2026-04-29 13:47 26.63350 -57.56474 34984 ft 517 kts 50°
2026-04-29 13:47 26.67563 -57.50018 34983 ft 517 kts 51°
2026-04-29 13:48 26.71805 -57.43510 34982 ft 517 kts 51°
2026-04-29 13:48 26.76040 -57.37003 34978 ft 517 kts 51°
2026-04-29 13:49 26.80270 -57.30493 34996 ft 517 kts 51°
2026-04-29 13:49 26.84502 -57.23971 34980 ft 518 kts 51°
2026-04-29 13:50 26.88732 -57.17442 34979 ft 518 kts 51°
2026-04-29 13:50 26.92961 -57.10905 34971 ft 518 kts 51°
2026-04-29 13:51 26.97188 -57.04361 34970 ft 518 kts 51°
2026-04-29 13:51 27.01374 -56.97851 34978 ft 518 kts 52°
2026-04-29 13:52 27.05503 -56.91205 34970 ft 519 kts 52°
2026-04-29 13:52 27.09596 -56.84530 34971 ft 519 kts 52°
2026-04-29 13:53 27.13696 -56.77856 34973 ft 519 kts 52°
2026-04-29 13:53 27.17806 -56.71179 34969 ft 519 kts 52°
2026-04-29 13:54 27.21914 -56.64505 34963 ft 519 kts 52°
2026-04-29 13:54 27.26022 -56.57822 34964 ft 519 kts 52°
2026-04-29 13:55 27.30123 -56.51136 34968 ft 519 kts 52°
2026-04-29 13:55 27.34219 -56.44448 34972 ft 519 kts 52°
2026-04-29 13:56 27.38294 -56.37785 34961 ft 520 kts 52°
2026-04-29 13:56 27.42392 -56.31074 34962 ft 520 kts 52°
2026-04-29 13:57 27.46485 -56.24360 34956 ft 520 kts 52°
2026-04-29 13:57 27.49888 -56.18771 34957 ft 520 kts 52°
2026-04-29 13:58 27.54675 -56.10897 34962 ft 521 kts 52°
2026-04-29 13:58 27.58771 -56.04148 34959 ft 522 kts 52°
2026-04-29 13:59 27.62869 -55.97384 34957 ft 522 kts 52°
2026-04-29 13:59 27.66966 -55.90612 34954 ft 522 kts 52°
2026-04-29 14:00 27.71035 -55.83876 34958 ft 523 kts 52°
2026-04-29 14:00 27.75138 -55.77075 34954 ft 524 kts 52°
2026-04-29 14:01 27.79242 -55.70259 34954 ft 525 kts 52°
2026-04-29 14:01 27.83346 -55.63434 34951 ft 525 kts 52°
2026-04-29 14:02 27.87451 -55.56595 34954 ft 526 kts 52°
2026-04-29 14:02 27.91564 -55.49733 34951 ft 527 kts 52°
2026-04-29 14:03 27.95676 -55.42861 34947 ft 528 kts 52°
2026-04-29 14:03 27.99763 -55.36020 34941 ft 528 kts 52°
2026-04-29 14:04 28.03882 -55.29115 34956 ft 529 kts 52°
2026-04-29 14:04 28.08003 -55.22195 34941 ft 530 kts 52°
2026-04-29 14:05 28.12126 -55.15260 34938 ft 531 kts 52°
2026-04-29 14:05 28.16247 -55.08318 34943 ft 531 kts 52°
2026-04-29 14:06 28.20370 -55.01361 34949 ft 532 kts 52°
2026-04-29 14:06 28.24466 -54.94439 34938 ft 532 kts 52°
2026-04-29 14:07 28.28590 -54.87458 34933 ft 532 kts 52°
2026-04-29 14:07 28.32716 -54.80461 34935 ft 532 kts 52°
2026-04-29 14:08 28.36832 -54.73470 34926 ft 532 kts 52°
2026-04-29 14:08 28.40938 -54.66485 34932 ft 532 kts 53°
2026-04-29 14:09 28.45040 -54.59496 34932 ft 532 kts 53°
2026-04-29 14:09 28.49140 -54.52498 34938 ft 531 kts 53°
2026-04-29 14:10 28.53211 -54.45539 34918 ft 532 kts 53°
2026-04-29 14:10 28.57304 -54.38531 34918 ft 532 kts 53°
2026-04-29 14:11 28.61396 -54.31511 34939 ft 532 kts 53°
2026-04-29 14:11 28.65491 -54.24477 34945 ft 533 kts 53°
2026-04-29 14:12 28.68894 -54.18621 34921 ft 534 kts 53°
2026-04-29 14:12 28.72989 -54.11564 34925 ft 534 kts 53°
2026-04-29 14:13 28.77082 -54.04497 34921 ft 534 kts 53°
2026-04-29 14:13 28.81177 -53.97417 34935 ft 535 kts 53°
2026-04-29 14:14 28.85273 -53.90323 34922 ft 536 kts 53°
2026-04-29 14:14 28.89371 -53.83212 34915 ft 536 kts 53°
2026-04-29 14:15 28.93466 -53.76096 34913 ft 537 kts 53°
2026-04-29 14:15 28.97558 -53.68971 34923 ft 537 kts 53°
2026-04-29 14:16 29.01651 -53.61833 34912 ft 537 kts 53°
2026-04-29 14:16 29.05749 -53.54674 34909 ft 538 kts 53°
2026-04-29 14:17 29.09839 -53.47517 34910 ft 538 kts 53°
2026-04-29 14:17 29.13903 -53.40392 34912 ft 539 kts 53°
2026-04-29 14:18 29.18001 -53.33198 34909 ft 540 kts 53°
2026-04-29 14:18 29.22094 -53.25998 34904 ft 540 kts 53°
2026-04-29 14:19 29.26190 -53.18780 34897 ft 540 kts 53°
2026-04-29 14:19 29.30283 -53.11555 34903 ft 541 kts 52°
2026-04-29 14:20 29.34377 -53.04314 34902 ft 541 kts 53°
2026-04-29 14:20 29.38470 -52.97066 34889 ft 541 kts 53°
2026-04-29 14:21 29.42556 -52.89814 34916 ft 541 kts 53°
2026-04-29 14:21 29.46644 -52.82547 34905 ft 542 kts 53°
2026-04-29 14:22 29.50729 -52.75272 34877 ft 542 kts 53°
2026-04-29 14:22 29.54788 -52.68030 34892 ft 542 kts 53°
2026-04-29 14:23 29.58869 -52.60738 34886 ft 543 kts 53°
2026-04-29 14:23 29.62953 -52.53426 34888 ft 543 kts 53°
2026-04-29 14:24 29.67034 -52.46107 34882 ft 544 kts 53°
2026-04-29 14:24 29.71111 -52.38781 34905 ft 544 kts 53°
2026-04-29 14:25 29.75195 -52.31430 34886 ft 545 kts 53°
2026-04-29 14:25 29.79277 -52.24069 34880 ft 546 kts 53°
2026-04-29 14:26 29.83358 -52.16696 34879 ft 546 kts 53°
2026-04-29 14:26 29.87441 -52.09306 34874 ft 546 kts 53°
2026-04-29 14:27 29.91489 -52.01966 34862 ft 546 kts 53°
2026-04-29 14:28 29.97594 -51.90870 34876 ft 545 kts 53°
2026-04-29 14:28 30.01660 -51.83465 34887 ft 546 kts 53°
2026-04-29 14:29 30.05720 -51.76056 34865 ft 546 kts 53°
2026-04-29 14:29 30.09775 -51.68642 34874 ft 546 kts 53°
2026-04-29 14:30 30.13822 -51.61230 34903 ft 546 kts 53°
2026-04-29 14:30 30.17872 -51.53798 34865 ft 547 kts 53°
2026-04-29 14:31 30.21927 -51.46343 34867 ft 547 kts 53°
2026-04-29 14:31 30.25947 -51.38939 34873 ft 547 kts 53°
2026-04-29 14:32 30.29994 -51.31471 34857 ft 548 kts 53°
2026-04-29 14:32 30.34039 -51.23995 34866 ft 548 kts 53°
2026-04-29 14:33 30.38083 -51.16503 34864 ft 548 kts 53°
2026-04-29 14:33 30.42122 -51.09007 34868 ft 549 kts 53°
2026-04-29 14:34 30.46160 -51.01499 34860 ft 549 kts 53°
2026-04-29 14:34 30.50196 -50.93982 34860 ft 549 kts 53°
2026-04-29 14:35 30.54225 -50.86462 34866 ft 549 kts 53°
2026-04-29 14:35 30.58255 -50.78928 34855 ft 549 kts 53°
2026-04-29 14:36 30.62279 -50.71388 34857 ft 549 kts 53°
2026-04-29 14:36 30.66300 -50.63841 34865 ft 549 kts 53°
2026-04-29 14:37 30.70290 -50.56337 34858 ft 550 kts 53°
2026-04-29 14:37 30.74305 -50.48773 34853 ft 550 kts 53°
2026-04-29 14:38 30.78320 -50.41193 34846 ft 550 kts 53°
2026-04-29 14:38 30.82336 -50.33597 34859 ft 551 kts 53°
2026-04-29 14:39 30.86353 -50.25982 34854 ft 552 kts 54°
2026-04-29 14:39 30.90371 -50.18351 34841 ft 553 kts 54°
2026-04-29 14:40 30.94389 -50.10704 34861 ft 554 kts 54°
2026-04-29 14:40 30.98409 -50.03043 34854 ft 554 kts 54°
2026-04-29 14:41 31.02758 -49.95739 34846 ft 548 kts 46°
2026-04-29 14:41 31.07536 -49.88830 34841 ft 548 kts 45°
2026-04-29 14:42 31.12339 -49.81916 34843 ft 549 kts 45°
2026-04-29 14:42 31.17117 -49.74947 34841 ft 550 kts 46°
2026-04-29 14:43 31.21870 -49.67952 34848 ft 550 kts 46°
2026-04-29 14:43 31.26622 -49.60937 34845 ft 550 kts 46°
2026-04-29 14:44 31.31375 -49.53912 34850 ft 550 kts 46°
2026-04-29 14:44 31.36127 -49.46883 34832 ft 551 kts 46°
2026-04-29 14:45 31.40875 -49.39847 34844 ft 551 kts 46°
2026-04-29 14:45 31.45624 -49.32798 34837 ft 551 kts 46°
2026-04-29 14:46 31.50345 -49.25776 34837 ft 552 kts 46°
2026-04-29 14:46 31.55096 -49.18696 34837 ft 552 kts 46°
2026-04-29 14:47 31.59838 -49.11617 34863 ft 552 kts 46°
2026-04-29 14:47 31.64589 -49.04511 34832 ft 553 kts 46°
2026-04-29 14:48 31.69337 -48.97398 34839 ft 553 kts 46°
2026-04-29 14:48 31.74085 -48.90269 34855 ft 554 kts 46°
2026-04-29 14:49 31.78827 -48.83137 34840 ft 554 kts 46°
2026-04-29 14:49 31.83540 -48.76036 34842 ft 554 kts 46°
2026-04-29 14:50 31.88281 -48.68880 34854 ft 555 kts 46°
2026-04-29 14:50 31.93019 -48.61714 34843 ft 554 kts 46°
2026-04-29 14:51 31.97756 -48.54535 34846 ft 554 kts 46°
2026-04-29 14:51 32.02483 -48.47360 34854 ft 554 kts 47°
2026-04-29 14:52 32.07201 -48.40184 34837 ft 553 kts 47°
2026-04-29 14:52 32.11904 -48.33016 34901 ft 552 kts 48°
2026-04-29 14:53 32.16593 -48.25858 34872 ft 550 kts 49°
2026-04-29 14:53 32.21258 -48.18721 34853 ft 547 kts 48°
2026-04-29 14:54 32.25905 -48.11602 34891 ft 547 kts 50°
2026-04-29 14:54 32.30538 -48.04489 34886 ft 546 kts 50°
2026-04-29 14:55 32.35161 -47.97376 34876 ft 545 kts 50°
2026-04-29 14:55 32.39751 -47.90305 34896 ft 546 kts 51°
2026-04-29 14:56 32.44360 -47.83188 34897 ft 546 kts 51°
2026-04-29 14:56 32.48983 -47.76036 34895 ft 545 kts 51°
2026-04-29 14:57 32.53591 -47.68894 34907 ft 545 kts 51°
2026-04-29 14:57 32.58196 -47.61743 34912 ft 546 kts 51°
2026-04-29 14:58 32.62805 -47.54573 34931 ft 546 kts 52°
2026-04-29 14:58 32.67409 -47.47396 34916 ft 546 kts 52°
2026-04-29 14:59 32.71976 -47.40262 34946 ft 546 kts 52°
2026-04-29 14:59 32.76569 -47.33076 34949 ft 546 kts 53°
2026-04-29 15:00 32.80406 -47.27061 34925 ft 544 kts 53°
2026-04-29 15:00 32.84965 -47.19900 34954 ft 542 kts 53°
2026-04-29 15:01 32.89475 -47.12806 34937 ft 539 kts 54°
2026-04-29 15:01 32.93986 -47.05695 34937 ft 536 kts 54°
2026-04-29 15:02 32.98469 -46.98614 34951 ft 535 kts 54°
2026-04-29 15:02 33.02945 -46.91530 34960 ft 535 kts 54°
2026-04-29 15:03 33.07436 -46.84410 34966 ft 538 kts 54°
2026-04-29 15:03 33.11942 -46.77253 34963 ft 540 kts 55°
2026-04-29 15:04 33.16425 -46.70117 34964 ft 541 kts 55°
2026-04-29 15:04 33.20942 -46.62916 34986 ft 541 kts 55°
2026-04-29 15:05 33.25445 -46.55721 34941 ft 539 kts 55°
2026-04-29 15:05 33.29922 -46.48554 34965 ft 537 kts 55°
2026-04-29 15:06 33.34382 -46.41402 34989 ft 536 kts 56°
2026-04-29 15:06 33.38822 -46.34266 34971 ft 533 kts 56°
2026-04-29 15:07 33.43248 -46.27139 34998 ft 532 kts 56°
2026-04-29 15:07 33.47657 -46.20024 34983 ft 532 kts 56°
2026-04-29 15:08 33.52066 -46.12896 34988 ft 532 kts 56°
2026-04-29 15:08 33.56464 -46.05772 35002 ft 532 kts 56°
2026-04-29 15:09 33.60861 -45.98637 34995 ft 532 kts 56°
2026-04-29 15:09 33.65230 -45.91533 34989 ft 532 kts 56°
2026-04-29 15:10 33.69624 -45.84376 35007 ft 533 kts 56°
2026-04-29 15:10 33.74023 -45.77195 34992 ft 534 kts 56°
2026-04-29 15:11 33.78422 -45.69998 35013 ft 534 kts 55°
2026-04-29 15:11 33.82819 -45.62794 35011 ft 535 kts 55°
2026-04-29 15:12 33.87210 -45.55584 35011 ft 534 kts 54°
2026-04-29 15:12 33.91600 -45.48361 35019 ft 534 kts 54°
2026-04-29 15:13 33.95985 -45.41132 35020 ft 534 kts 54°
2026-04-29 15:13 34.00360 -45.33905 35028 ft 533 kts 54°
2026-04-29 15:14 34.04729 -45.26674 35029 ft 533 kts 54°
2026-04-29 15:14 34.09068 -45.19477 35044 ft 534 kts 54°
2026-04-29 15:15 34.13434 -45.12221 35029 ft 534 kts 54°
2026-04-29 15:15 34.17803 -45.04948 35031 ft 535 kts 54°
2026-04-29 15:16 34.22172 -44.97657 35043 ft 536 kts 54°
2026-04-29 15:16 34.26544 -44.90348 35037 ft 537 kts 54°
2026-04-29 15:17 34.30912 -44.83030 35042 ft 537 kts 54°
2026-04-29 15:17 34.35275 -44.75705 35046 ft 536 kts 54°
2026-04-29 15:18 34.39631 -44.68378 35038 ft 535 kts 54°
2026-04-29 15:18 34.43964 -44.61074 35047 ft 534 kts 54°
2026-04-29 15:19 34.48261 -44.53816 35044 ft 532 kts 54°
2026-04-29 15:19 34.52572 -44.46522 35041 ft 531 kts 54°
2026-04-29 15:20 34.56869 -44.39234 35049 ft 531 kts 54°
2026-04-29 15:20 34.61162 -44.31939 35051 ft 532 kts 54°
2026-04-29 15:21 34.65462 -44.24616 35054 ft 533 kts 54°
2026-04-29 15:21 34.69768 -44.17268 35063 ft 535 kts 54°
2026-04-29 15:22 34.74081 -44.09893 35062 ft 536 kts 54°
2026-04-29 15:22 34.78398 -44.02497 35073 ft 537 kts 54°
2026-04-29 15:23 34.82723 -43.95070 35055 ft 537 kts 54°
2026-04-29 15:23 34.87038 -43.87646 35068 ft 537 kts 54°
2026-04-29 15:24 34.91325 -43.80254 35069 ft 537 kts 54°
2026-04-29 15:24 34.95621 -43.72829 35062 ft 536 kts 54°
2026-04-29 15:25 34.99912 -43.65401 35066 ft 535 kts 54°
2026-04-29 15:25 35.04190 -43.57977 35060 ft 535 kts 54°
2026-04-29 15:26 35.08468 -43.50539 35069 ft 535 kts 54°
2026-04-29 15:26 35.12748 -43.43082 35070 ft 536 kts 54°
2026-04-29 15:27 35.17025 -43.35613 35073 ft 537 kts 54°
2026-04-29 15:27 35.21302 -43.28130 35068 ft 537 kts 54°
2026-04-29 15:28 35.25575 -43.20636 35069 ft 537 kts 54°
2026-04-29 15:28 35.29823 -43.13170 35067 ft 537 kts 54°
2026-04-29 15:29 35.34089 -43.05658 35069 ft 537 kts 54°
2026-04-29 15:30 35.42601 -42.90617 35071 ft 536 kts 54°
2026-04-29 15:30 35.46844 -42.83097 35067 ft 536 kts 54°
2026-04-29 15:31 35.51081 -42.75570 35065 ft 536 kts 54°
2026-04-29 15:31 35.55317 -42.68029 35073 ft 536 kts 54°
2026-04-29 15:32 35.59552 -42.60474 35077 ft 537 kts 54°
2026-04-29 15:32 35.63791 -42.52895 35069 ft 539 kts 54°
2026-04-29 15:33 35.68038 -42.45287 35074 ft 540 kts 54°
2026-04-29 15:33 35.72290 -42.37649 35075 ft 542 kts 53°
2026-04-29 15:34 35.76556 -42.29973 35069 ft 544 kts 53°
2026-04-29 15:34 35.80796 -42.22325 35069 ft 545 kts 53°
2026-04-29 15:35 35.85065 -42.14607 35075 ft 545 kts 53°
2026-04-29 15:35 35.89328 -42.06883 35066 ft 544 kts 53°
2026-04-29 15:36 35.93581 -41.99160 35070 ft 543 kts 53°
2026-04-29 15:36 35.97817 -41.91449 35073 ft 542 kts 53°
2026-04-29 15:37 36.02043 -41.83742 35068 ft 541 kts 53°
2026-04-29 15:37 36.06237 -41.76075 35073 ft 541 kts 52°
2026-04-29 15:38 36.10443 -41.68369 35067 ft 540 kts 52°
2026-04-29 15:38 36.14642 -41.60659 35068 ft 540 kts 52°
2026-04-29 15:39 36.18832 -41.52947 35074 ft 540 kts 52°
2026-04-29 15:39 36.23022 -41.45219 35066 ft 540 kts 52°
2026-04-29 15:40 36.27208 -41.37480 35067 ft 540 kts 52°
2026-04-29 15:40 36.31387 -41.29737 35068 ft 540 kts 52°
2026-04-29 15:41 36.35561 -41.21984 35065 ft 540 kts 52°
2026-04-29 15:41 36.39732 -41.14221 35065 ft 541 kts 52°
2026-04-29 15:42 36.43900 -41.06446 35062 ft 541 kts 52°
2026-04-29 15:42 36.48059 -40.98668 35066 ft 541 kts 52°
2026-04-29 15:43 36.52218 -40.90874 35090 ft 541 kts 52°
2026-04-29 15:43 36.56370 -40.83073 35075 ft 540 kts 52°
2026-04-29 15:44 36.60510 -40.75279 35068 ft 539 kts 52°
2026-04-29 15:44 36.64632 -40.67498 35079 ft 537 kts 52°
2026-04-29 15:45 36.68712 -40.59782 35056 ft 536 kts 52°
2026-04-29 15:45 36.72803 -40.52026 35057 ft 535 kts 52°
2026-04-29 15:46 36.76890 -40.44261 35070 ft 535 kts 52°
2026-04-29 15:46 36.80974 -40.36483 35065 ft 536 kts 52°
2026-04-29 15:47 36.84367 -40.30007 35069 ft 536 kts 52°
2026-04-29 15:47 36.88450 -40.22197 35077 ft 537 kts 52°
2026-04-29 15:48 36.92532 -40.14371 35069 ft 538 kts 52°
2026-04-29 15:48 36.96617 -40.06518 35064 ft 539 kts 52°
2026-04-29 15:49 37.00722 -39.98687 35079 ft 537 kts 49°
2026-04-29 15:49 37.05067 -39.91091 35067 ft 535 kts 47°
2026-04-29 15:50 37.09479 -39.83586 35063 ft 535 kts 47°
2026-04-29 15:50 37.13868 -39.76071 35075 ft 534 kts 47°
2026-04-29 15:51 37.18226 -39.68530 35069 ft 533 kts 48°
2026-04-29 15:51 37.22566 -39.60982 35065 ft 533 kts 48°
2026-04-29 15:52 37.26893 -39.53437 35076 ft 532 kts 48°
2026-04-29 15:52 37.31189 -39.45934 35064 ft 532 kts 47°
2026-04-29 15:53 37.35502 -39.38387 35062 ft 531 kts 47°
2026-04-29 15:53 37.39806 -39.30840 35073 ft 531 kts 47°
2026-04-29 15:54 37.44107 -39.23281 35070 ft 531 kts 47°
2026-04-29 15:54 37.48403 -39.15713 35062 ft 531 kts 47°
2026-04-29 15:55 37.52694 -39.08136 35076 ft 532 kts 47°
2026-04-29 15:55 37.56986 -39.00541 35059 ft 532 kts 47°
2026-04-29 15:56 37.61271 -38.92939 35065 ft 532 kts 47°
2026-04-29 15:56 37.65552 -38.85327 35069 ft 532 kts 47°
2026-04-29 15:57 37.69830 -38.77704 35059 ft 532 kts 47°
2026-04-29 15:57 37.74101 -38.70075 35059 ft 532 kts 47°
2026-04-29 15:58 37.78340 -38.62486 35072 ft 532 kts 46°
2026-04-29 15:58 37.82612 -38.54822 35064 ft 533 kts 46°
2026-04-29 15:59 37.86877 -38.47151 35057 ft 533 kts 46°
2026-04-29 15:59 37.91134 -38.39476 35073 ft 533 kts 46°
2026-04-29 16:00 37.95398 -38.31772 35059 ft 533 kts 46°
2026-04-29 16:00 37.99648 -38.24074 35056 ft 533 kts 46°
2026-04-29 16:01 38.03869 -38.16410 35071 ft 532 kts 46°
2026-04-29 16:01 38.08102 -38.08707 35052 ft 532 kts 46°
2026-04-29 16:02 38.12332 -38.00992 35050 ft 532 kts 46°
2026-04-29 16:02 38.16553 -37.93276 35079 ft 531 kts 46°
2026-04-29 16:03 38.20766 -37.85555 35051 ft 531 kts 46°
2026-04-29 16:03 38.24970 -37.77833 35047 ft 530 kts 46°
2026-04-29 16:04 38.29159 -37.70120 35075 ft 530 kts 46°
2026-04-29 16:04 38.33340 -37.62404 35049 ft 529 kts 46°
2026-04-29 16:05 38.37510 -37.54688 35043 ft 528 kts 46°
2026-04-29 16:05 38.41673 -37.46970 35061 ft 528 kts 46°
2026-04-29 16:06 38.45828 -37.39249 35048 ft 528 kts 46°
2026-04-29 16:06 38.49955 -37.31562 35044 ft 528 kts 46°
2026-04-29 16:07 38.54109 -37.23804 35070 ft 529 kts 46°
2026-04-29 16:07 38.58259 -37.16035 35027 ft 529 kts 46°
2026-04-29 16:08 38.62400 -37.08264 35026 ft 528 kts 46°
2026-04-29 16:08 38.66532 -37.00491 35041 ft 528 kts 45°
2026-04-29 16:09 38.70658 -36.92710 35027 ft 528 kts 45°
2026-04-29 16:09 38.74780 -36.84919 35020 ft 528 kts 46°
2026-04-29 16:10 38.78892 -36.77129 35022 ft 528 kts 45°
2026-04-29 16:10 38.82999 -36.69329 35020 ft 528 kts 46°
2026-04-29 16:11 38.87076 -36.61567 35016 ft 527 kts 46°
2026-04-29 16:11 38.91171 -36.53753 35008 ft 527 kts 46°
2026-04-29 16:12 38.95260 -36.45932 35007 ft 527 kts 46°
2026-04-29 16:12 38.99345 -36.38098 35033 ft 528 kts 46°
2026-04-29 16:13 39.03430 -36.30246 35005 ft 527 kts 46°
2026-04-29 16:13 39.07500 -36.22402 34998 ft 527 kts 46°
2026-04-29 16:14 39.11565 -36.14548 35017 ft 527 kts 46°
2026-04-29 16:14 39.15620 -36.06695 34999 ft 526 kts 46°
2026-04-29 16:15 39.19642 -35.98887 34992 ft 526 kts 46°
2026-04-29 16:15 39.23687 -35.91015 34986 ft 526 kts 46°
2026-04-29 16:16 39.27722 -35.83144 34983 ft 525 kts 46°
2026-04-29 16:16 39.31747 -35.75274 34977 ft 525 kts 46°
2026-04-29 16:17 39.35771 -35.67386 34978 ft 526 kts 45°
2026-04-29 16:17 39.39788 -35.59492 34973 ft 526 kts 46°
2026-04-29 16:18 39.43802 -35.51583 34995 ft 526 kts 46°
2026-04-29 16:18 39.47816 -35.43655 34970 ft 526 kts 46°
2026-04-29 16:19 39.51794 -35.35777 34964 ft 526 kts 46°
2026-04-29 16:19 39.55816 -35.27793 34983 ft 525 kts 46°
2026-04-29 16:20 39.59771 -35.19920 34952 ft 524 kts 46°
2026-04-29 16:20 39.63736 -35.12007 34944 ft 522 kts 46°
2026-04-29 16:21 39.67689 -35.04103 34960 ft 521 kts 48°
2026-04-29 16:21 39.71624 -34.96214 34953 ft 519 kts 48°
2026-04-29 16:22 39.75539 -34.88345 34935 ft 518 kts 48°
2026-04-29 16:22 39.79440 -34.80487 34939 ft 516 kts 50°
2026-04-29 16:23 39.83315 -34.72657 34928 ft 513 kts 50°
2026-04-29 16:23 39.87166 -34.64858 34923 ft 511 kts 50°
2026-04-29 16:24 39.90998 -34.57083 34928 ft 510 kts 51°
2026-04-29 16:24 39.94812 -34.49322 34915 ft 508 kts 51°
2026-04-29 16:25 39.98613 -34.41567 34913 ft 507 kts 51°
2026-04-29 16:25 40.02403 -34.33816 34909 ft 507 kts 51°
2026-04-29 16:26 40.06195 -34.26046 34911 ft 507 kts 51°
2026-04-29 16:26 40.09987 -34.18253 34910 ft 509 kts 51°
2026-04-29 16:27 40.13755 -34.10493 34915 ft 509 kts 51°
2026-04-29 16:27 40.17540 -34.02671 34901 ft 509 kts 52°
2026-04-29 16:28 40.21315 -33.94851 34904 ft 508 kts 52°
2026-04-29 16:28 40.25077 -33.87042 34893 ft 506 kts 52°
2026-04-29 16:29 40.28817 -33.79257 34887 ft 504 kts 52°
2026-04-29 16:29 40.32541 -33.71487 34886 ft 503 kts 53°
2026-04-29 16:30 40.36249 -33.63734 34890 ft 501 kts 53°
2026-04-29 16:30 40.39942 -33.55990 34873 ft 500 kts 53°
2026-04-29 16:31 40.43626 -33.48247 34866 ft 499 kts 53°
2026-04-29 16:31 40.47294 -33.40519 34876 ft 498 kts 54°
2026-04-29 16:32 40.50946 -33.32803 34867 ft 497 kts 54°
2026-04-29 16:32 40.54567 -33.25135 34865 ft 496 kts 54°
2026-04-29 16:33 40.59428 -33.14813 34864 ft 495 kts 56°
2026-04-29 16:33 40.63020 -33.07160 34851 ft 494 kts 56°
2026-04-29 16:34 40.66622 -32.99467 34847 ft 493 kts 56°
2026-04-29 16:34 40.70212 -32.91782 34854 ft 492 kts 56°
2026-04-29 16:35 40.73790 -32.84104 34847 ft 491 kts 56°
2026-04-29 16:35 40.77357 -32.76428 34846 ft 490 kts 56°
2026-04-29 16:36 40.80917 -32.68752 34850 ft 490 kts 56°
2026-04-29 16:36 40.84463 -32.61084 34840 ft 489 kts 56°
2026-04-29 16:37 40.87999 -32.53418 34831 ft 488 kts 57°
2026-04-29 16:37 40.90931 -32.47048 34836 ft 488 kts 58°
2026-04-29 16:38 40.95042 -32.38096 34834 ft 486 kts 58°
2026-04-29 16:38 40.98543 -32.30449 34829 ft 486 kts 58°
2026-04-29 16:39 41.02038 -32.22796 34826 ft 485 kts 59°
2026-04-29 16:39 41.05523 -32.15148 34826 ft 484 kts 59°
2026-04-29 16:40 41.08971 -32.07559 34817 ft 483 kts 60°
2026-04-29 16:40 41.12432 -31.99924 34817 ft 482 kts 60°
2026-04-29 16:41 41.15879 -31.92300 34805 ft 482 kts 60°
2026-04-29 16:41 41.19329 -31.84651 34812 ft 482 kts 60°
2026-04-29 16:42 41.22767 -31.77008 34815 ft 482 kts 60°
2026-04-29 16:42 41.26205 -31.69348 34808 ft 482 kts 61°
2026-04-29 16:43 41.29637 -31.61682 34804 ft 482 kts 61°
2026-04-29 16:43 41.33057 -31.54021 34806 ft 481 kts 60°
2026-04-29 16:44 41.36446 -31.46411 34801 ft 481 kts 61°
2026-04-29 16:44 41.39843 -31.38764 34798 ft 479 kts 61°
2026-04-29 16:45 41.43223 -31.31135 34794 ft 477 kts 61°
2026-04-29 16:45 41.46590 -31.23517 34805 ft 476 kts 61°
2026-04-29 16:46 41.49944 -31.15910 34791 ft 474 kts 61°
2026-04-29 16:46 41.53271 -31.08346 34777 ft 470 kts 62°
2026-04-29 16:47 41.56567 -31.00834 34769 ft 467 kts 62°
2026-04-29 16:47 41.59842 -30.93348 34775 ft 466 kts 62°
2026-04-29 16:48 41.63105 -30.85871 34777 ft 465 kts 62°
2026-04-29 16:48 41.66355 -30.78406 34772 ft 464 kts 62°
2026-04-29 16:49 41.69603 -30.70926 34763 ft 465 kts 62°
2026-04-29 16:49 41.72826 -30.63486 34771 ft 465 kts 62°
2026-04-29 16:50 41.76065 -30.55991 34771 ft 465 kts 62°
2026-04-29 16:50 41.79302 -30.48480 34770 ft 466 kts 63°
2026-04-29 16:51 41.82539 -30.40952 34766 ft 466 kts 63°
2026-04-29 16:51 41.85772 -30.33413 34767 ft 466 kts 63°
2026-04-29 16:52 41.89003 -30.25860 34767 ft 466 kts 63°
2026-04-29 16:52 41.92225 -30.18308 34757 ft 466 kts 63°
2026-04-29 16:53 41.95439 -30.10755 34761 ft 465 kts 63°
2026-04-29 16:53 41.98642 -30.03211 34762 ft 464 kts 63°
2026-04-29 16:54 42.01664 -29.95553 34803 ft 465 kts 66°
2026-04-29 16:54 42.03054 -29.91686 34982 ft 466 kts 67°
2026-04-29 16:54 42.04466 -29.87711 35311 ft 464 kts 67°
2026-04-29 16:55 42.05855 -29.83786 35595 ft 464 kts 67°
2026-04-29 16:55 42.07245 -29.79866 35824 ft 465 kts 67°
2026-04-29 16:55 42.08642 -29.75932 36024 ft 466 kts 67°
2026-04-29 16:55 42.10026 -29.72041 36241 ft 467 kts 66°
2026-04-29 16:56 42.11433 -29.68085 36466 ft 468 kts 66°
2026-04-29 16:56 42.12844 -29.64121 36660 ft 469 kts 66°
2026-04-29 16:56 42.15671 -29.56164 36750 ft 471 kts 66°
2026-04-29 16:57 42.18492 -29.48206 36761 ft 469 kts 66°
2026-04-29 16:57 42.21291 -29.40285 36765 ft 467 kts 67°
2026-04-29 16:58 42.24071 -29.32390 36754 ft 465 kts 67°
2026-04-29 16:58 42.26843 -29.24496 36769 ft 465 kts 67°
2026-04-29 16:59 42.29609 -29.16596 36762 ft 466 kts 67°
2026-04-29 16:59 42.32375 -29.08674 36761 ft 466 kts 67°
2026-04-29 17:00 42.35142 -29.00727 36761 ft 467 kts 67°
2026-04-29 17:00 42.37906 -28.92766 36764 ft 468 kts 67°
2026-04-29 17:01 42.40649 -28.84841 36762 ft 469 kts 67°
2026-04-29 17:01 42.43411 -28.76841 36752 ft 469 kts 68°
2026-04-29 17:02 42.46169 -28.68830 36763 ft 469 kts 68°
2026-04-29 17:02 42.48920 -28.60813 36769 ft 469 kts 68°
2026-04-29 17:03 42.51667 -28.52788 36768 ft 469 kts 68°
2026-04-29 17:03 42.54410 -28.44751 36750 ft 469 kts 68°
2026-04-29 17:04 42.57142 -28.36720 36773 ft 469 kts 68°
2026-04-29 17:04 42.59869 -28.28680 36772 ft 469 kts 68°
2026-04-29 17:05 42.62590 -28.20633 36772 ft 469 kts 68°
2026-04-29 17:05 42.65303 -28.12589 36773 ft 468 kts 68°
2026-04-29 17:06 42.68008 -28.04544 36778 ft 468 kts 68°
2026-04-29 17:06 42.70691 -27.96542 36783 ft 468 kts 69°
2026-04-29 17:07 42.72947 -27.89793 36773 ft 468 kts 69°
2026-04-29 17:07 42.76069 -27.80428 36786 ft 468 kts 69°
2026-04-29 17:08 42.78751 -27.72356 36789 ft 467 kts 69°
2026-04-29 17:08 42.81422 -27.64293 36797 ft 467 kts 69°
2026-04-29 17:09 42.84088 -27.56224 36789 ft 466 kts 69°
2026-04-29 17:09 42.86744 -27.48158 36795 ft 468 kts 69°
2026-04-29 17:10 42.89413 -27.40024 36791 ft 472 kts 69°
2026-04-29 17:10 42.92064 -27.31929 36794 ft 468 kts 69°
2026-04-29 17:11 42.94703 -27.23851 36806 ft 464 kts 69°
2026-04-29 17:11 42.97321 -27.15804 36820 ft 462 kts 69°
2026-04-29 17:12 42.99920 -27.07791 36814 ft 461 kts 69°
2026-04-29 17:12 43.02076 -27.01125 36825 ft 462 kts 69°
2026-04-29 17:13 43.05107 -26.91725 36830 ft 463 kts 69°
2026-04-29 17:13 43.07701 -26.83654 36831 ft 464 kts 70°
2026-04-29 17:14 43.10300 -26.75546 36835 ft 466 kts 70°
2026-04-29 17:14 43.12899 -26.67410 36821 ft 467 kts 69°
2026-04-29 17:15 43.15499 -26.59250 36834 ft 468 kts 70°
2026-04-29 17:15 43.18079 -26.51127 36843 ft 468 kts 70°
2026-04-29 17:16 43.20672 -26.42938 36846 ft 468 kts 70°
2026-04-29 17:16 43.23259 -26.34739 36844 ft 468 kts 69°
2026-04-29 17:17 43.25837 -26.26548 36850 ft 467 kts 70°
2026-04-29 17:17 43.28407 -26.18353 36848 ft 467 kts 70°
2026-04-29 17:18 43.30539 -26.11538 36849 ft 467 kts 70°
2026-04-29 17:18 43.33094 -26.03344 36850 ft 466 kts 70°
2026-04-29 17:19 43.35642 -25.95148 36861 ft 467 kts 70°
2026-04-29 17:19 43.38185 -25.86940 36859 ft 467 kts 70°
2026-04-29 17:20 43.40726 -25.78716 36857 ft 467 kts 70°
2026-04-29 17:20 43.43262 -25.70480 36875 ft 468 kts 70°
2026-04-29 17:21 43.45798 -25.62220 36875 ft 469 kts 70°
2026-04-29 17:21 43.48333 -25.53936 36880 ft 469 kts 70°
2026-04-29 17:22 43.50844 -25.45704 36864 ft 470 kts 70°
2026-04-29 17:22 43.53371 -25.37393 36882 ft 470 kts 70°
2026-04-29 17:23 43.55894 -25.29066 36885 ft 470 kts 70°
2026-04-29 17:23 43.58412 -25.20733 36891 ft 471 kts 70°
2026-04-29 17:24 43.60923 -25.12394 36880 ft 471 kts 70°
2026-04-29 17:24 43.63430 -25.04040 36899 ft 471 kts 70°
2026-04-29 17:25 43.65934 -24.95669 36899 ft 472 kts 70°
2026-04-29 17:25 43.68433 -24.87289 36900 ft 472 kts 70°
2026-04-29 17:26 43.70929 -24.78892 36900 ft 472 kts 70°
2026-04-29 17:26 43.73421 -24.70479 36912 ft 473 kts 70°
2026-04-29 17:27 43.75892 -24.62109 36910 ft 473 kts 70°
2026-04-29 17:27 43.78374 -24.53673 36906 ft 474 kts 70°
2026-04-29 17:28 43.80853 -24.45223 36914 ft 474 kts 70°
2026-04-29 17:28 43.83327 -24.36759 36919 ft 475 kts 70°
2026-04-29 17:29 43.85801 -24.28266 36922 ft 475 kts 70°
2026-04-29 17:29 43.88271 -24.19759 36908 ft 475 kts 70°
2026-04-29 17:30 43.90734 -24.11246 36927 ft 476 kts 70°
2026-04-29 17:30 43.93193 -24.02721 36929 ft 476 kts 70°
2026-04-29 17:31 43.95646 -23.94187 36930 ft 476 kts 70°
2026-04-29 17:31 43.98093 -23.85642 36922 ft 476 kts 70°
2026-04-29 17:32 44.00532 -23.77096 36935 ft 476 kts 70°
2026-04-29 17:32 44.02967 -23.68537 36943 ft 476 kts 70°
2026-04-29 17:33 44.05395 -23.59973 36934 ft 476 kts 70°
2026-04-29 17:33 44.07817 -23.51398 36935 ft 476 kts 71°
2026-04-29 17:34 44.10236 -23.42804 36941 ft 476 kts 71°
2026-04-29 17:34 44.12642 -23.34228 36943 ft 476 kts 70°
2026-04-29 17:35 44.16239 -23.21353 36947 ft 475 kts 70°
2026-04-29 17:36 44.18625 -23.12772 36946 ft 475 kts 71°
2026-04-29 17:36 44.20986 -23.04255 36947 ft 474 kts 71°
2026-04-29 17:37 44.23352 -22.95685 36950 ft 474 kts 71°
2026-04-29 17:37 44.25714 -22.87104 36962 ft 473 kts 71°
2026-04-29 17:38 44.28067 -22.78522 36961 ft 474 kts 71°
2026-04-29 17:38 44.30419 -22.69913 36962 ft 474 kts 71°
2026-04-29 17:39 44.32764 -22.61303 36964 ft 474 kts 71°
2026-04-29 17:39 44.35102 -22.52685 36965 ft 474 kts 70°
2026-04-29 17:40 44.37436 -22.44053 36964 ft 475 kts 71°
2026-04-29 17:40 44.39751 -22.35457 36964 ft 475 kts 71°
2026-04-29 17:41 44.42075 -22.26800 36966 ft 475 kts 71°
2026-04-29 17:41 44.44391 -22.18139 36960 ft 475 kts 70°
2026-04-29 17:42 44.46703 -22.09466 36967 ft 476 kts 71°
2026-04-29 17:42 44.49010 -22.00777 36969 ft 476 kts 71°
2026-04-29 17:43 44.51310 -21.92080 36968 ft 476 kts 70°
2026-04-29 17:43 44.53606 -21.83368 36975 ft 476 kts 70°
2026-04-29 17:44 44.55897 -21.74648 36969 ft 477 kts 70°
2026-04-29 17:44 44.58182 -21.65911 36973 ft 477 kts 70°
2026-04-29 17:45 44.60450 -21.57213 36975 ft 478 kts 70°
2026-04-29 17:45 44.62726 -21.48450 36976 ft 478 kts 70°
2026-04-29 17:46 44.64996 -21.39678 36981 ft 478 kts 70°
2026-04-29 17:46 44.67258 -21.30901 36984 ft 478 kts 70°
2026-04-29 17:47 44.69516 -21.22107 36969 ft 478 kts 70°
2026-04-29 17:47 44.71767 -21.13311 36988 ft 478 kts 70°
2026-04-29 17:48 44.74011 -21.04507 36990 ft 478 kts 70°
2026-04-29 17:48 44.76248 -20.95697 36988 ft 478 kts 70°
2026-04-29 17:49 44.78477 -20.86883 36986 ft 478 kts 70°
2026-04-29 17:49 44.80701 -20.78057 36981 ft 478 kts 70°
2026-04-29 17:50 44.82915 -20.69239 37001 ft 478 kts 70°
2026-04-29 17:50 44.85110 -20.60460 36999 ft 478 kts 70°
2026-04-29 17:51 44.87313 -20.51614 36981 ft 478 kts 70°
2026-04-29 17:51 44.89511 -20.42758 36995 ft 479 kts 70°
2026-04-29 17:52 44.91704 -20.33884 37010 ft 479 kts 70°
2026-04-29 17:52 44.93894 -20.24990 36995 ft 480 kts 70°
2026-04-29 17:53 44.96079 -20.16081 37003 ft 480 kts 70°
2026-04-29 17:53 44.98258 -20.07166 36997 ft 480 kts 70°
2026-04-29 17:54 45.00718 -19.98390 36996 ft 480 kts 62°
2026-04-29 17:54 45.04123 -19.90289 36998 ft 479 kts 57°
2026-04-29 17:55 45.07664 -19.82301 37003 ft 479 kts 57°
2026-04-29 17:55 45.11181 -19.74286 37009 ft 479 kts 58°
2026-04-29 17:56 45.14651 -19.66286 37004 ft 479 kts 58°
2026-04-29 17:56 45.18129 -19.58216 37013 ft 480 kts 57°
2026-04-29 17:57 45.21600 -19.50137 37010 ft 480 kts 57°
2026-04-29 17:57 45.25067 -19.42049 37003 ft 480 kts 58°
2026-04-29 17:58 45.28528 -19.33954 37006 ft 480 kts 58°
2026-04-29 17:58 45.31981 -19.25853 37018 ft 480 kts 57°
2026-04-29 17:59 45.35433 -19.17733 37016 ft 480 kts 57°
2026-04-29 17:59 45.38875 -19.09611 37014 ft 479 kts 57°
2026-04-29 18:00 45.42313 -19.01478 37014 ft 479 kts 57°
2026-04-29 18:00 45.45740 -18.93346 37025 ft 479 kts 57°
2026-04-29 18:01 45.49163 -18.85200 37025 ft 479 kts 57°
2026-04-29 18:01 45.52582 -18.77039 37021 ft 479 kts 57°
2026-04-29 18:02 45.55995 -18.68870 37022 ft 479 kts 57°
2026-04-29 18:02 45.59376 -18.60751 37031 ft 479 kts 57°
2026-04-29 18:03 45.62781 -18.52553 37023 ft 480 kts 57°
2026-04-29 18:03 45.66181 -18.44344 37022 ft 480 kts 58°
2026-04-29 18:04 45.69004 -18.37508 37022 ft 480 kts 57°
2026-04-29 18:04 45.72392 -18.29282 37035 ft 480 kts 57°
2026-04-29 18:05 45.75778 -18.21034 37025 ft 480 kts 57°
2026-04-29 18:05 45.79161 -18.12773 37030 ft 480 kts 57°
2026-04-29 18:06 45.82532 -18.04514 37029 ft 479 kts 58°
2026-04-29 18:06 45.85894 -17.96254 37041 ft 479 kts 57°
2026-04-29 18:07 45.89247 -17.87989 37031 ft 479 kts 57°
2026-04-29 18:07 45.92592 -17.79722 37032 ft 478 kts 57°